Preview of NWS' New Version of Forecast
This preview is not operational and should not be used for support decisions.

Terminal Aerodrome Forecast (TAF)

Issued by National Weather Service (NWS)

                            
000
FTUS42 KMFL 150538
TAFMIA
TAF
KMIA 150538Z 1506/1612 34005KT P6SM SCT040
     FM151400 34009KT P6SM FEW040=